| time (UTC) | temp C | wind direction | speed KPH | gust KPH | rain 1hr cm | rain 24hr cm | rain mn cm | humidity % | barometer mb |
| 20260906000505 | 22 | 31 | 3.2 | 8.0 | 0.00 | 0.00 | 0.00 | 52 | 1015.3 |
| 20260906000005 | 22 | 172 | 4.8 | 8.0 | 0.00 | 0.00 | 0.00 | 53 | 1015.4 |
| 20260905235005 | 22 | 189 | 8.0 | 14.5 | 0.00 | 0.00 | 0.00 | 51 | 1015.4 |
| 20260905234505 | 22 | 79 | 3.2 | 3.2 | 0.00 | 0.00 | 0.00 | 51 | 1015.4 |
| 20260905234005 | 22 | 204 | 4.8 | 11.3 | 0.00 | 0.00 | 0.00 | 49 | 1015.5 |
| 20260905233505 | 22 | 196 | 4.8 | 14.5 | 0.00 | 0.00 | 0.00 | 49 | 1015.5 |
| 20260905233005 | 22 | 191 | 9.7 | 16.1 | 0.00 | 0.00 | 0.00 | 49 | 1015.5 |
| 20260905232005 | 22 | 237 | 6.4 | 19.3 | 0.00 | 0.00 | 0.00 | 50 | 1015.5 |
| 20260905231505 | 22 | 122 | 8.0 | 14.5 | 0.00 | 0.00 | 0.00 | 49 | 1015.5 |
| 20260905231005 | 22 | 185 | 9.7 | 16.1 | 0.00 | 0.00 | 0.00 | 52 | 1015.6 |
| 20260905230505 | 22 | 232 | 4.8 | 14.5 | 0.00 | 0.00 | 0.00 | 52 | 1015.5 |
| 20260905224506 | 22 | 205 | 6.4 | 11.3 | 0.00 | 0.00 | 0.00 | 53 | 1015.8 |
| 20260905224006 | 21 | 209 | 4.8 | 9.7 | 0.00 | 0.00 | 0.00 | 53 | 1015.8 |
| 20260905223505 | 21 | 246 | 4.8 | 14.5 | 0.00 | 0.00 | 0.00 | 54 | 1015.8 |
| 20260905223005 | 21 | 239 | 4.8 | 11.3 | 0.00 | 0.00 | 0.00 | 57 | 1015.8 |
| 20260905222505 | 21 | 212 | 8.0 | 14.5 | 0.00 | 0.00 | 0.00 | 57 | 1015.9 |
| 20260905222005 | 21 | 261 | 8.0 | 12.9 | 0.00 | 0.00 | 0.00 | 55 | 1015.9 |
| 20260905221505 | 21 | 234 | 6.4 | 11.3 | 0.00 | 0.00 | 0.00 | 56 | 1016.0 |
| 20260905221005 | 21 | 265 | 4.8 | 8.0 | 0.00 | 0.00 | 0.00 | 55 | 1016.1 |
| 20260905220005 | 21 | 152 | 8.0 | 12.9 | 0.00 | 0.00 | 0.00 | 56 | 1016.1 |
| 20260905215505 | 21 | 210 | 4.8 | 8.0 | 0.00 | 0.00 | 0.00 | 55 | 1016.1 |
| 20260905215005 | 21 | 235 | 6.4 | 14.5 | 0.00 | 0.00 | 0.00 | 55 | 1016.3 |
| 20260905214005 | 21 | 139 | 11.3 | 19.3 | 0.00 | 0.00 | 0.00 | 56 | 1016.3 |
| 20260905213505 | 21 | 201 | 6.4 | 12.9 | 0.00 | 0.00 | 0.00 | 58 | 1016.3 |
| 20260905213005 | 21 | 152 | 4.8 | 9.7 | 0.00 | 0.00 | 0.00 | 59 | 1016.3 |
| 20260905212505 | 21 | 193 | 6.4 | 11.3 | 0.00 | 0.03 | 0.00 | 59 | 1016.4 |
| 20260905211506 | 20 | 180 | 4.8 | 12.9 | 0.00 | 0.03 | 0.00 | 61 | 1016.4 |
| 20260905211005 | 20 | 202 | 4.8 | 11.3 | 0.00 | 0.03 | 0.00 | 63 | 1016.5 |
| 20260905210505 | 20 | 168 | 8.0 | 12.9 | 0.00 | 0.03 | 0.00 | 62 | 1016.6 |
| 20260905210005 | 20 | 191 | 4.8 | 9.7 | 0.00 | 0.03 | 0.00 | 65 | 1016.6 |
| 20260905205505 | 19 | 308 | 3.2 | 4.8 | 0.00 | 0.05 | 0.00 | 68 | 1016.7 |
| 20260905204505 | 19 | 124 | 4.8 | 9.7 | 0.00 | 0.05 | 0.00 | 65 | 1016.8 |
| 20260905204005 | 18 | 143 | 4.8 | 9.7 | 0.00 | 0.05 | 0.00 | 68 | 1016.8 |
| 20260905203005 | 18 | 247 | 3.2 | 8.0 | 0.00 | 0.05 | 0.00 | 68 | 1016.9 |
| 20260905202505 | 17 | 215 | 4.8 | 8.0 | 0.00 | 0.05 | 0.00 | 70 | 1017.0 |
| 20260905202004 | 17 | 245 | 4.8 | 11.3 | 0.00 | 0.05 | 0.00 | 69 | 1016.9 |
| 20260905201505 | 17 | 228 | 4.8 | 11.3 | 0.00 | 0.05 | 0.00 | 71 | 1017.0 |
| 20260905200505 | 17 | 240 | 4.8 | 9.7 | 0.00 | 0.05 | 0.00 | 72 | 1017.0 |
| 20260905200005 | 17 | 223 | 4.8 | 9.7 | 0.00 | 0.05 | 0.00 | 73 | 1017.0 |
| 20260905195505 | 17 | 273 | 4.8 | 11.3 | 0.00 | 0.05 | 0.00 | 72 | 1017.0 |
| 20260905195005 | 17 | 295 | 4.8 | 12.9 | 0.00 | 0.05 | 0.00 | 73 | 1017.0 |
| 20260905194005 | 17 | 249 | 8.0 | 12.9 | 0.00 | 0.05 | 0.00 | 74 | 1017.0 |
| 20260905193505 | 17 | 232 | 3.2 | 11.3 | 0.00 | 0.05 | 0.00 | 76 | 1017.1 |
| 20260905193005 | 17 | 280 | 6.4 | 11.3 | 0.00 | 0.05 | 0.00 | 76 | 1017.2 |
| 20260905192505 | 17 | 239 | 4.8 | 8.0 | 0.00 | 0.05 | 0.00 | 76 | 1017.2 |
| 20260905192005 | 17 | 247 | 4.8 | 9.7 | 0.00 | 0.05 | 0.00 | 75 | 1017.1 |
| 20260905191005 | 17 | 202 | 4.8 | 8.0 | 0.00 | 0.05 | 0.00 | 76 | 1017.1 |
| 20260905190505 | 17 | 219 | 4.8 | 9.7 | 0.00 | 0.05 | 0.00 | 75 | 1017.1 |
| 20260905190005 | 17 | 219 | 1.6 | 4.8 | 0.00 | 0.05 | 0.00 | 76 | 1017.2 |
| 20260905185505 | 17 | 212 | 3.2 | 4.8 | 0.00 | 0.05 | 0.00 | 75 | 1017.2 |
| 20260905185005 | 17 | 221 | 1.6 | 4.8 | 0.00 | 0.05 | 0.00 | 75 | 1017.2 |
| 20260905184505 | 17 | 227 | 1.6 | 4.8 | 0.00 | 0.05 | 0.00 | 74 | 1017.2 |
| 20260905183005 | 17 | 86 | 0.0 | 4.8 | 0.00 | 0.05 | 0.00 | 74 | 1017.4 |
| 20260905182005 | 17 | 212 | 1.6 | 3.2 | 0.00 | 0.05 | 0.00 | 76 | 1017.4 |
| 20260905181005 | 17 | 339 | 1.6 | 3.2 | 0.00 | 0.05 | 0.00 | 78 | 1017.5 |
| 20260905180505 | 17 | 300 | 3.2 | 4.8 | 0.00 | 0.05 | 0.00 | 78 | 1017.5 |
| 20260905175505 | 17 | 74 | 3.2 | 8.0 | 0.00 | 0.05 | 0.00 | 80 | 1017.6 |
| 20260905175005 | 17 | 28 | 0.0 | 3.2 | 0.00 | 0.05 | 0.00 | 79 | 1017.5 |
| 20260905174505 | 16 | 104 | 0.0 | 8.0 | 0.00 | 0.05 | 0.00 | 79 | 1017.5 |
| 20260905174005 | 17 | 92 | 4.8 | 9.7 | 0.00 | 0.05 | 0.00 | 81 | 1017.5 |
| 20260905173505 | 16 | 44 | 1.6 | 3.2 | 0.00 | 0.05 | 0.00 | 79 | 1017.5 |
| 20260905173005 | 16 | 50 | 1.6 | 3.2 | 0.00 | 0.05 | 0.00 | 84 | 1017.6 |
| 20260905172505 | 15 | 72 | 0.0 | 4.8 | 0.00 | 0.05 | 0.00 | 86 | 1017.5 |
| 20260905172005 | 15 | 85 | 1.6 | 8.0 | 0.00 | 0.05 | 0.00 | 86 | 1017.6 |
| 20260905171505 | 15 | 0 | 3.2 | 8.0 | 0.00 | 0.05 | 0.00 | 86 | 1017.6 |
| 20260905171005 | 15 | 29 | 1.6 | 4.8 | 0.00 | 0.05 | 0.00 | 87 | 1017.5 |
| 20260905170505 | 15 | 34 | 1.6 | 3.2 | 0.00 | 0.05 | 0.00 | 88 | 1017.5 |
| 20260905170005 | 15 | 33 | 1.6 | 3.2 | 0.00 | 0.05 | 0.00 | 88 | 1017.5 |
| 20260905165505 | 15 | 59 | 1.6 | 3.2 | 0.00 | 0.05 | 0.00 | 88 | 1017.5 |
| 20260905165005 | 15 | 93 | 3.2 | 4.8 | 0.00 | 0.05 | 0.00 | 89 | 1017.5 |
| 20260905164505 | 14 | 75 | 1.6 | 4.8 | 0.00 | 0.05 | 0.00 | 89 | 1017.5 |
| 20260905163505 | 14 | 39 | 1.6 | 4.8 | 0.00 | 0.08 | 0.00 | 90 | 1017.5 |
| 20260905163005 | 14 | 0 | 3.2 | 4.8 | 0.00 | 0.08 | 0.00 | 90 | 1017.4 |
| 20260905162004 | 14 | 76 | 3.2 | 4.8 | 0.00 | 0.08 | 0.00 | 90 | 1017.5 |
| 20260905161505 | 13 | 73 | 1.6 | 3.2 | 0.00 | 0.08 | 0.00 | 90 | 1017.5 |
| 20260905161005 | 13 | 74 | 1.6 | 4.8 | 0.00 | 0.08 | 0.00 | 90 | 1017.5 |
| 20260905160005 | 13 | 99 | 1.6 | 3.2 | 0.00 | 0.08 | 0.00 | 90 | 1017.5 |
| 20260905155505 | 13 | 103 | 1.6 | 1.6 | 0.00 | 0.08 | 0.00 | 91 | 1017.5 |
| 20260905154005 | 13 | 104 | 1.6 | 3.2 | 0.00 | 0.08 | 0.00 | 91 | 1017.4 |
| 20260905153504 | 13 | 71 | 1.6 | 3.2 | 0.00 | 0.08 | 0.00 | 91 | 1017.5 |
| 20260905153005 | 13 | 66 | 0.0 | 3.2 | 0.00 | 0.08 | 0.00 | 91 | 1017.5 |
| 20260905152505 | 13 | 65 | 0.0 | 3.2 | 0.00 | 0.08 | 0.00 | 91 | 1017.5 |
| 20260905152005 | 13 | 61 | 1.6 | 3.2 | 0.00 | 0.08 | 0.00 | 91 | 1017.5 |
| 20260905151505 | 13 | 79 | 1.6 | 3.2 | 0.00 | 0.08 | 0.00 | 91 | 1017.5 |
| 20260905151005 | 13 | 82 | 3.2 | 3.2 | 0.00 | 0.08 | 0.00 | 91 | 1017.4 |
| 20260905150504 | 13 | 66 | 3.2 | 4.8 | 0.00 | 0.08 | 0.00 | 91 | 1017.4 |
| 20260905145506 | 13 | 126 | 0.0 | 1.6 | 0.00 | 0.08 | 0.00 | 91 | 1017.4 |
| 20260905145005 | 13 | 126 | 0.0 | 3.2 | 0.00 | 0.08 | 0.00 | 91 | 1017.4 |
| 20260905144505 | 13 | 127 | 1.6 | 3.2 | 0.00 | 0.08 | 0.00 | 91 | 1017.3 |
| 20260905144005 | 12 | 126 | 0.0 | 3.2 | 0.00 | 0.08 | 0.00 | 91 | 1017.3 |
| 20260905143505 | 12 | 126 | 0.0 | 3.2 | 0.00 | 0.08 | 0.00 | 91 | 1017.3 |
| 20260905143005 | 12 | 126 | 0.0 | 3.2 | 0.00 | 0.08 | 0.00 | 91 | 1017.3 |
| 20260905142504 | 12 | 126 | 0.0 | 3.2 | 0.00 | 0.08 | 0.00 | 91 | 1017.3 |
| 20260905141505 | 12 | 126 | 0.0 | 3.2 | 0.00 | 0.08 | 0.00 | 91 | 1017.3 |
| 20260905141005 | 12 | 126 | 0.0 | 3.2 | 0.00 | 0.08 | 0.00 | 91 | 1017.3 |
| 20260905140005 | 12 | 126 | 0.0 | 1.6 | 0.00 | 0.08 | 0.00 | 91 | 1017.2 |
| 20260905135504 | 12 | 126 | 0.0 | 3.2 | 0.00 | 0.08 | 0.00 | 91 | 1017.2 |
| 20260905135005 | 12 | 126 | 1.6 | 3.2 | 0.00 | 0.08 | 0.00 | 91 | 1017.2 |
| 20260905134505 | 12 | 126 | 1.6 | 3.2 | 0.00 | 0.08 | 0.00 | 91 | 1017.2 |
| 20260905134004 | 12 | 86 | 0.0 | 3.2 | 0.00 | 0.08 | 0.00 | 91 | 1017.2 |
| 20260905133504 | 12 | 86 | 0.0 | 3.2 | 0.00 | 0.08 | 0.00 | 91 | 1017.2 |
| 20260905133005 | 12 | 86 | 0.0 | 3.2 | 0.00 | 0.08 | 0.00 | 91 | 1017.1 |
| 20260905132504 | 12 | 86 | 0.0 | 3.2 | 0.00 | 0.10 | 0.00 | 91 | 1017.2 |
| 20260905132004 | 12 | 86 | 0.0 | 0.0 | 0.00 | 0.13 | 0.00 | 91 | 1017.1 |
| 20260905131505 | 12 | 86 | 0.0 | 1.6 | 0.00 | 0.13 | 0.00 | 91 | 1017.2 |
| 20260905130504 | 12 | 86 | 0.0 | 0.0 | 0.00 | 0.15 | 0.00 | 91 | 1017.1 |
| 20260905130004 | 12 | 86 | 0.0 | 0.0 | 0.00 | 0.18 | 0.00 | 91 | 1017.1 |
| 20260905125505 | 12 | 86 | 0.0 | 0.0 | 0.00 | 0.18 | 0.00 | 91 | 1017.1 |
| 20260905125005 | 12 | 86 | 0.0 | 0.0 | 0.00 | 0.18 | 0.00 | 91 | 1017.1 |
| 20260905124505 | 12 | 86 | 0.0 | 0.0 | 0.00 | 0.20 | 0.00 | 91 | 1017.0 |
| 20260905124005 | 12 | 86 | 0.0 | 0.0 | 0.00 | 0.23 | 0.00 | 91 | 1017.0 |
| 20260905123505 | 12 | 86 | 0.0 | 0.0 | 0.00 | 0.23 | 0.00 | 91 | 1017.0 |
| 20260905123005 | 12 | 86 | 0.0 | 0.0 | 0.00 | 0.25 | 0.00 | 91 | 1017.0 |
| 20260905122504 | 12 | 86 | 0.0 | 0.0 | 0.00 | 0.28 | 0.00 | 91 | 1017.0 |
| 20260905122004 | 12 | 86 | 0.0 | 0.0 | 0.00 | 0.30 | 0.00 | 91 | 1017.0 |
| 20260905121505 | 12 | 86 | 0.0 | 0.0 | 0.00 | 0.33 | 0.00 | 91 | 1016.9 |
| 20260905121005 | 12 | 86 | 0.0 | 0.0 | 0.00 | 0.36 | 0.00 | 91 | 1016.9 |
| 20260905120005 | 12 | 86 | 0.0 | 1.6 | 0.00 | 0.38 | 0.00 | 91 | 1016.8 |
| 20260905115505 | 12 | 86 | 1.6 | 3.2 | 0.00 | 0.41 | 0.00 | 91 | 1016.9 |
| 20260905115005 | 12 | 86 | 1.6 | 3.2 | 0.00 | 0.41 | 0.00 | 91 | 1016.8 |
| 20260905114005 | 12 | 86 | 0.0 | 0.0 | 0.00 | 0.41 | 0.00 | 91 | 1016.8 |
| 20260905113505 | 12 | 86 | 1.6 | 3.2 | 0.00 | 0.41 | 0.00 | 91 | 1016.7 |
| 20260905113005 | 12 | 86 | 0.0 | 0.0 | 0.00 | 0.41 | 0.00 | 91 | 1016.7 |
| 20260905112505 | 11 | 86 | 0.0 | 1.6 | 0.00 | 0.41 | 0.00 | 91 | 1016.7 |
| 20260905112004 | 11 | 86 | 0.0 | 0.0 | 0.00 | 0.41 | 0.00 | 91 | 1016.8 |
| 20260905111505 | 11 | 86 | 0.0 | 0.0 | 0.00 | 0.41 | 0.00 | 91 | 1016.8 |
| 20260905111004 | 11 | 86 | 0.0 | 0.0 | 0.00 | 0.41 | 0.00 | 91 | 1016.8 |
| 20260905110505 | 11 | 86 | 0.0 | 3.2 | 0.00 | 0.41 | 0.00 | 91 | 1016.9 |
| 20260905110005 | 11 | 86 | 1.6 | 3.2 | 0.00 | 0.43 | 0.00 | 91 | 1016.8 |
| 20260905103505 | 11 | 86 | 0.0 | 0.0 | 0.00 | 0.43 | 0.00 | 91 | 1016.9 |
| 20260905103005 | 11 | 86 | 0.0 | 1.6 | 0.00 | 0.43 | 0.00 | 91 | 1017.0 |
| 20260905102505 | 11 | 86 | 1.6 | 1.6 | 0.00 | 0.43 | 0.00 | 91 | 1016.9 |
| 20260905101505 | 11 | 86 | 0.0 | 3.2 | 0.00 | 0.43 | 0.00 | 91 | 1016.9 |
| 20260905101005 | 11 | 86 | 0.0 | 0.0 | 0.00 | 0.43 | 0.00 | 91 | 1016.9 |
| 20260905095505 | 11 | 86 | 0.0 | 0.0 | 0.00 | 0.43 | 0.00 | 91 | 1017.0 |
| 20260905095004 | 11 | 86 | 0.0 | 0.0 | 0.00 | 0.43 | 0.00 | 91 | 1017.0 |
| 20260905094505 | 11 | 86 | 0.0 | 0.0 | 0.00 | 0.43 | 0.00 | 91 | 1016.9 |
| 20260905093505 | 11 | 159 | 1.6 | 3.2 | 0.00 | 0.43 | 0.00 | 91 | 1016.9 |
| 20260905093005 | 11 | 164 | 0.0 | 1.6 | 0.00 | 0.43 | 0.00 | 91 | 1016.8 |
| 20260905092505 | 11 | 164 | 0.0 | 0.0 | 0.00 | 0.43 | 0.00 | 91 | 1016.8 |
| 20260905091505 | 11 | 164 | 0.0 | 3.2 | 0.00 | 0.43 | 0.00 | 91 | 1016.7 |
| 20260905091004 | 11 | 164 | 1.6 | 3.2 | 0.00 | 0.43 | 0.00 | 91 | 1016.7 |
| 20260905090505 | 11 | 175 | 0.0 | 3.2 | 0.00 | 0.43 | 0.00 | 91 | 1016.7 |
| 20260905090005 | 11 | 175 | 1.6 | 3.2 | 0.00 | 0.43 | 0.00 | 91 | 1016.6 |
| 20260905085505 | 11 | 227 | 1.6 | 1.6 | 0.00 | 0.43 | 0.00 | 91 | 1016.7 |
| 20260905084505 | 11 | 304 | 0.0 | 1.6 | 0.00 | 0.43 | 0.00 | 91 | 1016.5 |
| 20260905084005 | 11 | 304 | 0.0 | 3.2 | 0.00 | 0.43 | 0.00 | 91 | 1016.5 |
| 20260905083505 | 11 | 304 | 0.0 | 3.2 | 0.00 | 0.43 | 0.00 | 90 | 1016.5 |
| 20260905083005 | 11 | 304 | 1.6 | 3.2 | 0.00 | 0.43 | 0.00 | 90 | 1016.6 |
| 20260905082505 | 11 | 302 | 1.6 | 1.6 | 0.00 | 0.43 | 0.00 | 90 | 1016.5 |
| 20260905082005 | 11 | 302 | 1.6 | 3.2 | 0.00 | 0.43 | 0.00 | 91 | 1016.4 |
| 20260905081505 | 11 | 327 | 0.0 | 0.0 | 0.00 | 0.43 | 0.00 | 90 | 1016.4 |
| 20260905081005 | 11 | 327 | 0.0 | 3.2 | 0.00 | 0.43 | 0.00 | 90 | 1016.5 |
| 20260905080504 | 11 | 327 | 1.6 | 3.2 | 0.00 | 0.43 | 0.00 | 90 | 1016.4 |
| 20260905080005 | 11 | 269 | 0.0 | 3.2 | 0.00 | 0.43 | 0.00 | 90 | 1016.4 |
| 20260905075505 | 11 | 269 | 1.6 | 3.2 | 0.00 | 0.43 | 0.00 | 90 | 1016.3 |
| 20260905075005 | 11 | 269 | 1.6 | 3.2 | 0.00 | 0.43 | 0.00 | 90 | 1016.3 |
| 20260905074505 | 11 | 236 | 3.2 | 3.2 | 0.00 | 0.43 | 0.00 | 90 | 1016.3 |
| 20260905073005 | 11 | 197 | 1.6 | 3.2 | 0.00 | 0.43 | 0.00 | 90 | 1016.2 |
| 20260905072504 | 11 | 196 | 0.0 | 3.2 | 0.00 | 0.43 | 0.00 | 90 | 1016.2 |
| 20260905072005 | 11 | 201 | 1.6 | 3.2 | 0.00 | 0.43 | 0.00 | 90 | 1016.2 |
| 20260905071004 | 11 | 246 | 0.0 | 0.0 | 0.00 | 0.43 | 0.00 | 90 | 1016.2 |
| 20260905070505 | 11 | 246 | 0.0 | 0.0 | 0.00 | 0.43 | 0.00 | 90 | 1016.2 |
| 20260905070005 | 11 | 246 | 0.0 | 0.0 | 0.00 | 0.43 | 0.00 | 90 | 1016.2 |
| 20260905065504 | 11 | 246 | 0.0 | 0.0 | 0.00 | 0.43 | 0.43 | 90 | 1016.2 |
| 20260905065005 | 11 | 246 | 0.0 | 0.0 | 0.00 | 0.43 | 0.43 | 90 | 1016.1 |
| 20260905064505 | 11 | 246 | 0.0 | 3.2 | 0.00 | 0.43 | 0.43 | 90 | 1016.0 |
| 20260905064004 | 11 | 246 | 0.0 | 3.2 | 0.00 | 0.43 | 0.43 | 90 | 1016.0 |
| 20260905063505 | 11 | 246 | 0.0 | 0.0 | 0.00 | 0.43 | 0.43 | 90 | 1016.0 |
| 20260905063005 | 11 | 246 | 0.0 | 0.0 | 0.00 | 0.43 | 0.43 | 90 | 1016.0 |
| 20260905062505 | 11 | 246 | 0.0 | 0.0 | 0.00 | 0.43 | 0.43 | 90 | 1015.9 |
| 20260905062004 | 12 | 246 | 1.6 | 1.6 | 0.00 | 0.43 | 0.43 | 90 | 1015.9 |
| 20260905061504 | 12 | 246 | 0.0 | 0.0 | 0.00 | 0.43 | 0.43 | 90 | 1015.8 |
| 20260905061005 | 12 | 246 | 1.6 | 3.2 | 0.00 | 0.43 | 0.43 | 89 | 1015.8 |
| 20260905060504 | 12 | 225 | 1.6 | 3.2 | 0.00 | 0.43 | 0.43 | 89 | 1015.7 |
| 20260905060005 | 12 | 225 | 1.6 | 3.2 | 0.00 | 0.43 | 0.43 | 89 | 1015.8 |
| 20260905055504 | 12 | 5 | 1.6 | 3.2 | 0.00 | 0.43 | 0.43 | 89 | 1015.9 |
| 20260905055005 | 12 | 7 | 1.6 | 3.2 | 0.00 | 0.43 | 0.43 | 89 | 1015.8 |
| 20260905054505 | 12 | 9 | 0.0 | 0.0 | 0.00 | 0.43 | 0.43 | 89 | 1015.8 |
| 20260905054005 | 12 | 9 | 0.0 | 3.2 | 0.00 | 0.43 | 0.43 | 89 | 1015.9 |
| 20260905053505 | 12 | 5 | 0.0 | 3.2 | 0.00 | 0.43 | 0.43 | 89 | 1015.9 |
| 20260905053005 | 12 | 5 | 0.0 | 0.0 | 0.00 | 0.43 | 0.43 | 89 | 1015.9 |
| 20260905052505 | 12 | 6 | 0.0 | 3.2 | 0.00 | 0.43 | 0.43 | 89 | 1015.8 |
| 20260905052004 | 13 | 5 | 0.0 | 3.2 | 0.00 | 0.43 | 0.43 | 89 | 1015.8 |
| 20260905051005 | 13 | 288 | 0.0 | 3.2 | 0.00 | 0.43 | 0.43 | 89 | 1015.8 |
| 20260905050504 | 13 | 288 | 1.6 | 1.6 | 0.00 | 0.43 | 0.43 | 89 | 1015.8 |
| 20260905050005 | 13 | 288 | 0.0 | 3.2 | 0.00 | 0.43 | 0.43 | 89 | 1015.8 |
| 20260905045504 | 13 | 287 | 0.0 | 0.0 | 0.00 | 0.43 | 0.43 | 89 | 1015.8 |
| 20260905045004 | 13 | 287 | 0.0 | 0.0 | 0.00 | 0.43 | 0.43 | 89 | 1015.8 |
| 20260905044005 | 13 | 288 | 0.0 | 3.2 | 0.00 | 0.43 | 0.43 | 89 | 1015.8 |
| 20260905043505 | 13 | 288 | 1.6 | 1.6 | 0.00 | 0.43 | 0.43 | 89 | 1015.8 |
| 20260905043005 | 13 | 288 | 0.0 | 0.0 | 0.00 | 0.43 | 0.43 | 89 | 1015.8 |
| 20260905042505 | 13 | 288 | 0.0 | 0.0 | 0.00 | 0.43 | 0.43 | 89 | 1015.8 |
| 20260905042005 | 13 | 288 | 0.0 | 1.6 | 0.00 | 0.43 | 0.43 | 89 | 1015.7 |
| 20260905041505 | 13 | 288 | 0.0 | 3.2 | 0.00 | 0.43 | 0.43 | 89 | 1015.7 |
| 20260905041005 | 13 | 288 | 1.6 | 3.2 | 0.00 | 0.43 | 0.43 | 89 | 1015.7 |
| 20260905040504 | 13 | 352 | 0.0 | 1.6 | 0.00 | 0.43 | 0.43 | 88 | 1015.6 |
| 20260905035505 | 13 | 252 | 0.0 | 1.6 | 0.00 | 0.43 | 0.43 | 88 | 1015.6 |
| 20260905035004 | 13 | 251 | 0.0 | 3.2 | 0.00 | 0.43 | 0.43 | 88 | 1015.5 |
| 20260905034504 | 13 | 251 | 1.6 | 1.6 | 0.00 | 0.43 | 0.43 | 88 | 1015.4 |
| 20260905034005 | 13 | 252 | 0.0 | 1.6 | 0.00 | 0.43 | 0.43 | 88 | 1015.4 |
| 20260905033505 | 13 | 252 | 0.0 | 3.2 | 0.00 | 0.43 | 0.43 | 88 | 1015.4 |
| 20260905033005 | 13 | 251 | 3.2 | 3.2 | 0.00 | 0.43 | 0.43 | 88 | 1015.2 |
| 20260905032505 | 13 | 243 | 3.2 | 3.2 | 0.00 | 0.43 | 0.43 | 87 | 1015.1 |
| 20260905032005 | 13 | 225 | 1.6 | 3.2 | 0.00 | 0.43 | 0.43 | 87 | 1015.1 |
| 20260905031505 | 13 | 209 | 1.6 | 3.2 | 0.00 | 0.43 | 0.43 | 87 | 1015.0 |
| 20260905031004 | 14 | 209 | 1.6 | 3.2 | 0.00 | 0.43 | 0.43 | 87 | 1014.9 |
| 20260905030505 | 14 | 209 | 1.6 | 3.2 | 0.00 | 0.43 | 0.43 | 86 | 1014.8 |
| 20260905030005 | 14 | 180 | 1.6 | 3.2 | 0.00 | 0.43 | 0.43 | 86 | 1014.7 |
| 20260905025504 | 14 | 259 | 1.6 | 1.6 | 0.00 | 0.43 | 0.43 | 86 | 1014.7 |
| 20260905025005 | 15 | 0 | 0.0 | 0.0 | 0.00 | 0.43 | 0.43 | 86 | 1014.7 |
| 20260905024505 | 15 | 0 | 0.0 | 0.0 | 0.00 | 0.43 | 0.43 | 85 | 1014.7 |
| 20260905024004 | 15 | 0 | 0.0 | 0.0 | 0.00 | 0.43 | 0.43 | 85 | 1014.7 |
| 20260905023505 | 15 | 0 | 0.0 | 3.2 | 0.00 | 0.43 | 0.43 | 84 | 1014.7 |
| 20260905022505 | 16 | 151 | 0.0 | 1.6 | 0.00 | 0.43 | 0.43 | 84 | 1014.7 |
| 20260905022004 | 16 | 148 | 1.6 | 3.2 | 0.00 | 0.43 | 0.43 | 83 | 1014.7 |
| 20260905021505 | 16 | 238 | 0.0 | 1.6 | 0.00 | 0.43 | 0.43 | 82 | 1014.7 |
| 20260905021005 | 16 | 238 | 1.6 | 1.6 | 0.00 | 0.43 | 0.43 | 80 | 1014.6 |
| 20260905020505 | 17 | 239 | 1.6 | 1.6 | 0.00 | 0.43 | 0.43 | 78 | 1014.4 |
| 20260905020004 | 17 | 250 | 1.6 | 3.2 | 0.00 | 0.43 | 0.43 | 77 | 1014.5 |
| 20260905015504 | 17 | 239 | 1.6 | 1.6 | 0.00 | 0.43 | 0.43 | 77 | 1014.5 |
| 20260905015005 | 17 | 239 | 1.6 | 3.2 | 0.00 | 0.43 | 0.43 | 75 | 1014.5 |
| 20260905014505 | 18 | 269 | 1.6 | 3.2 | 0.00 | 0.43 | 0.43 | 72 | 1014.4 |
| 20260905014004 | 18 | 202 | 1.6 | 3.2 | 0.00 | 0.43 | 0.43 | 73 | 1014.3 |
| 20260905013504 | 18 | 201 | 1.6 | 3.2 | 0.00 | 0.43 | 0.43 | 73 | 1014.3 |
| 20260905013004 | 17 | 214 | 1.6 | 4.8 | 0.00 | 0.43 | 0.43 | 74 | 1014.2 |
| 20260905012504 | 17 | 219 | 1.6 | 4.8 | 0.00 | 0.43 | 0.43 | 74 | 1014.2 |
| 20260905012004 | 17 | 214 | 3.2 | 8.0 | 0.00 | 0.43 | 0.43 | 73 | 1014.1 |
| 20260905011505 | 18 | 233 | 1.6 | 4.8 | 0.00 | 0.43 | 0.43 | 72 | 1014.2 |
| 20260905011004 | 18 | 175 | 1.6 | 8.0 | 0.00 | 0.43 | 0.43 | 72 | 1014.1 |
| 20260905010505 | 18 | 192 | 4.8 | 9.7 | 0.00 | 0.43 | 0.43 | 71 | 1014.2 |
| 20260905010005 | 18 | 179 | 3.2 | 8.0 | 0.00 | 0.43 | 0.43 | 72 | 1014.2 |
| 20260905005505 | 17 | 176 | 3.2 | 8.0 | 0.00 | 0.43 | 0.43 | 74 | 1014.2 |
| 20260905004005 | 17 | 139 | 4.8 | 9.7 | 0.00 | 0.43 | 0.43 | 77 | 1014.3 |
| 20260905003504 | 16 | 174 | 3.2 | 9.7 | 0.00 | 0.43 | 0.43 | 78 | 1014.3 |
| 20260905002505 | 16 | 161 | 4.8 | 9.7 | 0.00 | 0.43 | 0.43 | 78 | 1014.3 |
| 20260905001004 | 17 | 144 | 4.8 | 11.3 | 0.00 | 0.43 | 0.43 | 76 | 1014.3 |